Current Version              Previous Version:    01  02  03  04  05  06  07  08  09  10  11  12  13  14  15  16  17  18  19  20  21  22  23  24  25  26  27  28  29  30  
   31  32  33  34  35  36  37  38  39  40  41  42  43  44  45  46  47  48  49  50  51  52  53  54  55  56  57  58  59  60  

[Printable]
546
ASUS44 KFWD 201101
RWRTX
NORTH TEXAS HOURLY WEATHER ROUNDUP
NATIONAL WEATHER SERVICE FORT WORTH TX
600 AM CDT SAT SEP 20 2014

NOTE: "FAIR" INDICATES FEW OR NO CLOUDS BELOW 12,000 FEET WITH NO
SIGNIFICANT WEATHER AND/OR OBSTRUCTIONS TO VISIBILITY.

TXZ118-119-201200-
DALLAS/FORT WORTH METROPLEX

CITY           SKY/WX    TMP DP  RH WIND       PRES   REMARKS
DFW AIRPORT    PTCLDY    73  69  87 SE6       29.97R
DALLAS LOVE    PTCLDY    72  70  93 E6        29.97R
FTW MEACHAM    PTCLDY    74  70  87 SE8       29.96R
DAL-EXECUTIVE  CLEAR     73  69  87 E6        29.97R
FTW-ALLIANCE   PTCLDY    71  69  93 SE3       29.96R
FTW-NAS-JRB    MOCLDY    76  68  76 S5        30.01R
FTW-SPINKS       N/A     70  68  95 CALM      29.98R
ARLINGTON      CLEAR     73  68  84 CALM      29.97R
GRAND PRAIRIE  CLEAR     73  71  94 E3        29.99R
ADDISON        CLEAR     75  68  78 SE6       29.98S
LANCASTER      CLEAR     68  66  93 CALM      29.98R FOG
$$

TXZ091>094-102>105-117-120-121-131>134-201200-
NORTH CENTRAL TEXAS

CITY           SKY/WX    TMP DP  RH WIND       PRES   REMARKS
SHRMAN/DENISON CLEAR     73  69  87 SE5       30.00R
GAINESVILLE    CLEAR     70  68  95 E3        30.00R FOG
BRIDGEPORT     PTCLDY    70  70 100 CALM      29.99R
DECATUR        CLOUDY    71  69  95 CALM      29.99R FOG
DENTON         CLEAR     71  69  93 CALM      29.97R
MCKINNEY       CLEAR     71  69  93 E3        29.98R
GREENVILLE     CLEAR     70  68  94 E3        29.99R FOG
ROCKWALL       CLEAR     71  70  97 E5        29.97R
TERRELL        MOCLDY    73  71  93 E3        29.99R
WAXAHACHIE     CLEAR     71  69  94 CALM      29.98S
CLEBURNE       CLOUDY    72  72 100 SE6       29.98R
$$

TXZ083>090-098>101-113>116-127>130-139>142-154-155-201200-
WESTERN NORTH TEXAS

CITY           SKY/WX    TMP DP  RH WIND       PRES   REMARKS
WICHITA FALLS  CLOUDY    71  68  90 SE7       29.97R
WF-KICKAPOO    CLEAR     70  67  90 E5        29.98R
VERNON         CLOUDY    71  67  87 E3        29.98R
ABILENE        MOCLDY    73  70  90 SE7       29.97R
ABILENE-DYESS  MOCLDY    72  64  78 S5        29.97R
MINERAL WELLS  CLOUDY    72  70  93 SE5       29.96R
STEPHENVILLE   CLOUDY    73  69  89 CALM      30.00R
COMANCHE       CLOUDY    73  72  97 SE5       29.97S
BROWNWOOD      CLOUDY    73  72  94 SE5       29.97R
COLEMAN        CLOUDY    73  71  94 SE5       29.98R
BRADY          MOCLDY    72  72 100 SE5       29.96R
$$

TXZ143>147-156>162-174-175-201200-
CENTRAL TEXAS

CITY           SKY/WX    TMP DP  RH WIND       PRES   REMARKS
WACO           CLOUDY    74  72  93 SE5       29.96R
WACO-MCGREGOR  MOCLDY    73  68  83 SE5       29.97R
CORSICANA      MOCLDY    73  70  90 E5        29.98R
MEXIA          CLOUDY    71  70  97 CALM      29.96R
HEARNE         CLOUDY    73  72  96 CALM      29.96R
CAMERON        FOG       74  73  99 SE3       29.94S VSB 1/2
TEMPLE         CLOUDY    73  70  88 SE3       29.95R
KILLEEN        CLOUDY    75  72  88 SE8       29.95R
KILLEEN-SKYLRK CLOUDY    73  68  83 SE6       29.95R
FORT HOOD      MOCLDY    75  73  93 SE5       29.95R
HAMILTON       CLOUDY    74  74 100 E12       29.98R
LAMPASAS       CLOUDY    76  75  97 CALM      29.96R FOG
$$

TXZ095>097-106>112-122>126-135>138-148>153-164>167-201200-
EAST TEXAS

CITY           SKY/WX    TMP DP  RH WIND       PRES   REMARKS
PARIS          CLEAR     70  64  83 E7        30.01R
SULPHUR SPRNGS   N/A     69  69  99 CALM      30.02R FOG
MOUNT PLEASANT CLEAR     69  69  99 NE3       30.01R
MINEOLA        FOG       66  66 100 CALM      30.00R VSB 1
TYLER          CLEAR     71  68  90 CALM      29.98R
LONGVIEW       CLEAR     70  67  90 CALM      29.98R
MARSHALL       CLEAR     68  66  93 CALM      30.01R
ATHENS         CLEAR     66  66 100 CALM      29.98R
PALESTINE      CLEAR     71  71  98 E3        29.98R
JACKSONVILLE   CLEAR     70  69  96 CALM      30.01R
HENDERSON      CLEAR     67  67 100 CALM      29.99R FOG
NACOGDOCHES    CLEAR     66  64  94 CALM      29.98R
LUFKIN         CLEAR     72  67  84 CALM      29.97R
$$

SUPPLEMENTAL OBSERVATIONS (CENTRAL)

CITY           SKY/WX    TMP DP  RH WIND       PRES   REMARKS
$$

SUPPLEMENTAL OBSERVATIONS (WEST)

CITY           SKY/WX    TMP DP  RH WIND       PRES   REMARKS
$$

SUPPLEMENTAL OBSERVATIONS (EAST)

CITY           SKY/WX    TMP DP  RH WIND       PRES   REMARKS
$$

SUPPLEMENTAL OBSERVATIONS ARE A COLLECTION OF AUTOMATED INSTRUMENTS
THAT ARE MAINTAINED BY A VARIETY OF FEDERAL AND STATE AGENCIES.
CERTAIN ELEMENTS...SUCH AS HUMIDITY VALUES AND SUSTAINED WIND
SPEEDS...MAY BE APPROXIMATED.